Scottsboro, AL

2:02 AM CDT on September 22, 2017 (GMT -0500)
Scottsboro

Weather History for K4A6 - April, 2013

Change the Weather History Date:

Monday, April 1, 2013

  Actual Average (KHSV) Record (KHSV)
Temperature  
Mean Temperature 56 °F -  
Max Temperature 68 °F 69 °F 87 °F (1963)
Min Temperature 44 °F 44 °F 24 °F (1923)
Degree Days  
Heating Degree Days 9    
Growing Degree Days 6 (Base 50)    
Moisture  
Dew Point 46 °F    
Average Humidity 72    
Maximum Humidity 100    
Minimum Humidity 37    
Precipitation  
Precipitation 0.00 in - - ()
Sea Level Pressure  
Sea Level Pressure 30.03 in    
Wind  
Wind Speed 3 mph (NNW)    
Max Wind Speed 13 mph    
Max Gust Speed 21 mph    
Averages and records for this station are not official NWS values.
T = Trace of Precipitation, MM = Missing Value Source: NWS Daily Summary

Daily Weather History Graph

Daily Weather History Graph

Search for Another Location

Airport or City:

Trip Planner

Search our weather history database for the weather conditions in past years. The results will help you decide how hot, cold, wet, or windy it might be!

Date:

Astronomy

Apr. 01, 2013 Rise Set
Actual Time 6:30 AM CDT 7:05 PM CDT
Civil Twilight 6:05 AM CDT 7:30 PM CDT
Nautical Twilight 5:35 AM CDT 8:00 PM CDT
Astronomical Twilight 5:05 AM CDT 8:31 PM CDT
Moon 12:02 AM CDT (4/1) 10:27 AM CDT (4/1)
Length of Visible Light 13h 25m
Length of Day
12h 34m
Waning Gibbous, 67% of the Moon is Illuminated
Apr 1
Waning Gibbous
Apr 2
Last Quarter
Apr 10
New
Apr 18
First Quarter
Apr 25
Full

Hourly Weather History & Observations

Time (CDT) Temp. Windchill Dew Point Humidity Pressure Visibility Wind Dir Wind Speed Gust Speed Precip Events Conditions
12:15 AM 55.4 °F - 55.4 °F 100% - - Calm Calm - N/A   Unknown
12:35 AM 55.4 °F - 55.4 °F 100% - - Calm Calm - N/A   Unknown
12:55 AM 53.6 °F - 53.6 °F 100% - - Calm Calm - N/A   Overcast
1:15 AM 53.6 °F - 53.6 °F 100% - - Calm Calm - N/A   Overcast
1:35 AM 53.6 °F - 53.6 °F 100% - - Calm Calm - N/A   Overcast
1:55 AM 51.8 °F - 51.8 °F 100% - - North 3.5 mph - N/A   Unknown
2:15 AM 50.0 °F - 50.0 °F 100% - - North 3.5 mph - N/A   Unknown
2:35 AM 50.0 °F - 50.0 °F 100% 29.92 in - Calm Calm - N/A   Unknown
3:15 AM 50.0 °F - 50.0 °F 100% - - Calm Calm - N/A   Unknown
3:35 AM 48.2 °F - 48.2 °F 100% - - Calm Calm - N/A   Unknown
4:15 AM 46.4 °F - 46.4 °F 100% 29.93 in - Calm Calm - N/A   Mostly Cloudy
4:35 AM 46.4 °F - 46.4 °F 100% 29.93 in - Calm Calm - N/A   Unknown
5:15 AM 44.6 °F - 44.6 °F 100% 29.95 in - Calm Calm - N/A   Unknown
5:35 AM 44.6 °F - 44.6 °F 100% 29.96 in - Calm Calm - N/A   Mostly Cloudy
5:55 AM 44.6 °F - 44.6 °F 100% 29.97 in - Calm Calm - N/A   Mostly Cloudy
6:15 AM 44.6 °F - 44.6 °F 100% 29.98 in - Calm Calm - N/A   Overcast
6:35 AM 44.6 °F - 44.6 °F 100% 29.99 in - Calm Calm - N/A   Overcast
6:55 AM 44.6 °F - 44.6 °F 100% 30.00 in - Calm Calm - N/A   Overcast
7:15 AM 46.4 °F - 46.4 °F 100% 30.02 in - Calm Calm - N/A   Overcast
7:35 AM 46.4 °F 45.2 °F 46.4 °F 100% 30.03 in - NNE 3.5 mph - N/A   Overcast
8:15 AM 48.2 °F - 48.2 °F 100% 30.04 in - Calm Calm - N/A   Overcast
8:35 AM 48.2 °F - 48.2 °F 100% 30.04 in - Calm Calm - N/A   Overcast
8:55 AM 48.2 °F - 48.2 °F 100% 30.05 in - Calm Calm - N/A   Overcast
9:15 AM 48.2 °F - 48.2 °F 100% 30.05 in - Calm Calm - N/A   Unknown
9:35 AM 50.0 °F - 50.0 °F 100% 30.05 in - Calm Calm - N/A   Unknown
9:55 AM 51.8 °F - 51.8 °F 100% 30.05 in - Calm Calm - N/A   Unknown
10:15 AM 53.6 °F - 53.6 °F 100% 30.06 in - Calm Calm - N/A   Unknown
10:35 AM 57.2 °F - 50.0 °F 77% 30.06 in - Calm Calm - N/A   Clear
11:15 AM 59.0 °F - 48.2 °F 67% 30.06 in - Calm Calm - N/A   Clear
11:35 AM 60.8 °F - 50.0 °F 68% 30.06 in - East 3.5 mph - N/A   Clear
11:55 AM 64.4 °F - 48.2 °F 56% 30.05 in - North 5.8 mph - N/A   Partly Cloudy
12:15 PM 64.4 °F - 46.4 °F 52% 30.05 in - NW 3.5 mph - N/A   Mostly Cloudy
12:35 PM 66.2 °F - 44.6 °F 46% 30.05 in - WNW 11.5 mph - N/A   Mostly Cloudy
1:15 PM 66.2 °F - 42.8 °F 43% 30.04 in - NNW 5.8 mph - N/A   Scattered Clouds
1:35 PM 66.2 °F - 42.8 °F 43% 30.04 in - West 9.2 mph - N/A   Partly Cloudy
1:55 PM 66.2 °F - 41.0 °F 40% 30.03 in - NW 11.5 mph - N/A   Partly Cloudy
2:15 PM 68.0 °F - 41.0 °F 37% 30.03 in - West 11.5 mph 18.4 mph N/A   Partly Cloudy
2:35 PM 68.0 °F - 41.0 °F 37% 30.02 in - NW 9.2 mph 19.6 mph N/A   Partly Cloudy
2:55 PM 68.0 °F - 42.8 °F 40% 30.03 in - West 10.4 mph 19.6 mph N/A   Partly Cloudy
3:15 PM 68.0 °F - 41.0 °F 37% 30.02 in - NW 12.7 mph 20.7 mph N/A   Partly Cloudy
3:35 PM 68.0 °F - 41.0 °F 37% 30.02 in - WNW 9.2 mph 17.3 mph N/A   Clear
3:55 PM 68.0 °F - 41.0 °F 37% 30.03 in - WNW 10.4 mph 16.1 mph N/A   Clear
4:15 PM 68.0 °F - 41.0 °F 37% 30.03 in - NW 8.1 mph 17.3 mph N/A   Clear
4:35 PM 68.0 °F - 42.8 °F 40% 30.02 in - North 10.4 mph 16.1 mph N/A   Scattered Clouds
4:55 PM 66.2 °F - 42.8 °F 43% 30.02 in - North 11.5 mph - N/A   Partly Cloudy
5:15 PM 66.2 °F - 44.6 °F 46% 30.02 in - North 11.5 mph - N/A   Partly Cloudy
5:35 PM 66.2 °F - 44.6 °F 46% 30.02 in - North 6.9 mph - N/A   Clear
5:55 PM 64.4 °F - 42.8 °F 45% 30.02 in - NNW 5.8 mph - N/A   Clear
6:15 PM 64.4 °F - 42.8 °F 45% 30.02 in - North 4.6 mph - N/A   Clear
6:35 PM 64.4 °F - 42.8 °F 45% 30.02 in - North 8.1 mph - N/A   Clear
6:55 PM 62.6 °F - 42.8 °F 48% 30.03 in - North 6.9 mph - N/A   Clear
7:15 PM 62.6 °F - 42.8 °F 48% 30.03 in - North 5.8 mph - N/A   Clear
7:35 PM 59.0 °F - 44.6 °F 59% 30.04 in - NNW 3.5 mph - N/A   Partly Cloudy
7:55 PM 57.2 °F - 44.6 °F 63% 30.04 in - Calm Calm - N/A   Mostly Cloudy
8:15 PM 55.4 °F - 46.4 °F 72% 30.05 in - NNW 3.5 mph - N/A   Scattered Clouds
8:35 PM 55.4 °F - 46.4 °F 72% 30.06 in - Calm Calm - N/A   Scattered Clouds
8:55 PM 53.6 °F - 46.4 °F 77% 30.06 in - North 4.6 mph - N/A   Scattered Clouds
9:15 PM 55.4 °F - 44.6 °F 67% 30.08 in - North 5.8 mph - N/A   Scattered Clouds
9:35 PM 55.4 °F - 42.8 °F 63% 30.08 in - North 5.8 mph - N/A   Partly Cloudy
9:55 PM 55.4 °F - 41.0 °F 58% 30.08 in - North 5.8 mph - N/A   Clear
10:15 PM 55.4 °F - 41.0 °F 58% 30.09 in - North 3.5 mph - N/A   Clear
10:35 PM 55.4 °F - 39.2 °F 54% 30.10 in - North 5.8 mph - N/A   Clear
10:55 PM 53.6 °F - 39.2 °F 58% 30.10 in - North 4.6 mph - N/A   Clear
11:15 PM 53.6 °F - 39.2 °F 58% 30.11 in - North 4.6 mph - N/A   Partly Cloudy
11:35 PM 51.8 °F - 39.2 °F 62% 30.11 in - Calm Calm - N/A   Partly Cloudy
11:55 PM 50.0 °F - 39.2 °F 66% 30.10 in - Calm Calm - N/A   Partly Cloudy